• Currently

    Reported at Minneapolis, Minneapolis-St. Paul International Airport, MN
    4:10 AM CST TUE SEP 19 2017
  • 61°F16°C
  • Overcast
    Overcast
  • Feels Like:61°F16°CDew Point:57°F14°CHumidity:88% Winds:SE 8 mph 13 kph
    Pressure:29.91 in1013 hPaVisibility:10.00 miles16090.00 meters
Time Weather Temp Dew Point
Humidity Winds Visibility Pressure Precipitation
1 hr 24 hr
Tuesday, September 19
23:53 23:53 Cloudy Cloudy 59°F15°C 57°F14°C 93% ESE 8 mphESE 13 kph 10.0 miles16.1 km 29.97 in1015 hPa 0.00 in0.00 mm --
23:06 23:06 Cloudy Cloudy 59°F15°C 57°F14°C 93% SE 8 mphSE 13 kph 10.0 miles16.1 km 29.97 in1015 hPa 0.00 in0.00 mm --
22:53 22:53 Cloudy Cloudy 59°F15°C 57°F14°C 93% SE 10 mphSE 17 kph 10.0 miles16.1 km 29.97 in1015 hPa 0.00 in0.00 mm --
22:38 22:38 Cloudy Cloudy 59°F15°C 57°F14°C 93% SE 9 mphSE 15 kph 10.0 miles16.1 km 29.97 in1015 hPa 0.00 in0.00 mm --
22:25 22:25 Cloudy Cloudy 59°F15°C 57°F14°C 93% SE 9 mphSE 15 kph 10.0 miles16.1 km 29.97 in1015 hPa 0.00 in0.00 mm --
22:18 22:18 Cloudy Cloudy 59°F15°C 57°F14°C 93% SE 9 mphSE 15 kph 10.0 miles16.1 km 29.97 in1015 hPa 0.00 in0.00 mm --
21:53 21:53 Cloudy Cloudy 59°F15°C 57°F14°C 93% SE 9 mphSE 15 kph 10.0 miles16.1 km 29.97 in1015 hPa 0.00 in0.00 mm --
21:49 21:49 Cloudy Cloudy 59°F15°C 57°F14°C 94% SE 8 mphSE 13 kph 10.0 miles16.1 km 29.97 in1015 hPa 0.00 in0.00 mm --
21:26 21:26 Cloudy Cloudy 59°F15°C 57°F14°C 93% SE 7 mphSE 11 kph 10.0 miles16.1 km 29.97 in1015 hPa 0.00 in0.00 mm --
20:53 20:53 Cloudy Cloudy 59°F15°C 57°F14°C 93% SE 10 mphSE 17 kph 10.0 miles16.1 km 29.97 in1015 hPa 0.00 in0.00 mm --
19:53 19:53 Cloudy Cloudy 58°F14°C 56°F13°C 93% ESE 10 mphESE 17 kph 10.0 miles16.1 km 29.97 in1015 hPa 0.00 in0.00 mm --
19:06 19:06 Cloudy Cloudy 57°F14°C 55°F13°C 93% ESE 12 mphESE 19 kph 10.0 miles16.1 km 29.97 in1015 hPa 0.00 in0.00 mm --
18:53 18:53 Cloudy Cloudy 57°F14°C 55°F13°C 93% ESE 12 mphESE 19 kph 10.0 miles16.1 km 29.97 in1015 hPa 0.00 in0.00 mm --
17:53 17:53 Cloudy Cloudy 57°F14°C 54°F12°C 90% ESE 12 mphESE 19 kph 10.0 miles16.1 km 29.97 in1015 hPa 0.00 in0.00 mm --
17:10 17:10 Cloudy Cloudy 57°F14°C 54°F12°C 90% ESE 13 mphESE 20 kph 10.0 miles16.1 km 29.97 in1015 hPa 0.00 in0.00 mm --
16:53 16:53 Cloudy Cloudy 57°F14°C 55°F13°C 93% ESE 13 mphESE 20 kph 10.0 miles16.1 km 29.97 in1015 hPa 0.00 in0.00 mm --
16:35 16:35 Cloudy Cloudy 56°F13°C 54°F12°C 93% SE 13 mphSE 20 kph 10.0 miles16.1 km 30 in1016 hPa 0.00 in0.00 mm --
16:25 16:25 Cloudy Cloudy 56°F13°C 55°F13°C 97% SE 13 mphSE 20 kph 10.0 miles16.1 km 30 in1016 hPa 0.00 in0.00 mm --
16:02 16:02 Cloudy Cloudy 56°F13°C 55°F13°C 97% SE 10 mphSE 17 kph 10.0 miles16.1 km 30 in1016 hPa 0.00 in0.00 mm --
15:53 15:53 Cloudy Cloudy 56°F13°C 55°F13°C 97% SE 9 mphSE 15 kph 10.0 miles16.1 km 30 in1016 hPa 0.03 in19.35 mm --
15:18 15:18 Cloudy With Light Rain Cloudy With Light Rain 56°F13°C 55°F13°C 97% SE 13 mphSE 20 kph 9.0 miles14.5 km 30 in1016 hPa 0.03 in19.35 mm --
14:53 14:53 Cloudy With Rain Cloudy With Rain 55°F13°C 54°F12°C 96% SE 13 mphSE 20 kph 7.0 miles11.3 km 30 in1016 hPa 0.10 in64.52 mm --
13:53 13:53 Cloudy With Light Rain Cloudy With Light Rain 55°F13°C 54°F12°C 96% SSE 10 mphSSE 17 kph 8.0 miles12.9 km 30.03 in1017 hPa 0.07 in45.16 mm --
12:53 12:53 Cloudy With Light Rain Cloudy With Light Rain 57°F14°C 54°F12°C 90% SSE 12 mphSSE 19 kph 9.0 miles14.5 km 30.06 in1018 hPa 0.00 in0.03 mm --
11:53 11:53 Cloudy With Light Rain Cloudy With Light Rain 56°F13°C 54°F12°C 93% SE 14 mphSE 22 kph 8.0 miles12.9 km 30.06 in1018 hPa 0.05 in32.26 mm --
10:53 10:53 Cloudy With Rain Cloudy With Rain 55°F13°C 53°F12°C 93% SSE 12 mphSSE 19 kph 8.0 miles12.9 km 30.09 in1019 hPa 0.09 in58.06 mm --
09:53 09:53 Cloudy With Light Rain Cloudy With Light Rain 55°F13°C 53°F12°C 93% SSE 10 mphSSE 17 kph 9.0 miles14.5 km 30.06 in1018 hPa 0.03 in19.35 mm --
08:53 08:53 Cloudy Cloudy 57°F14°C 50°F10°C 78% SSE 14 mphSSE 22 kph 10.0 miles16.1 km 30.09 in1019 hPa 0.00 in0.00 mm --
07:53 07:53 Cloudy Cloudy 57°F14°C 52°F11°C 83% SSE 10 mphSSE 17 kph 10.0 miles16.1 km 30.09 in1019 hPa 0.00 in0.00 mm --
06:53 06:53 Mostly Cloudy Mostly Cloudy 57°F14°C 52°F11°C 83% SE 7 mphSE 11 kph 10.0 miles16.1 km 30.06 in1018 hPa 0.00 in0.00 mm --
05:53 05:53 Mostly Cloudy Mostly Cloudy 57°F14°C 52°F11°C 83% SSE 6 mphSSE 9 kph 10.0 miles16.1 km 30.06 in1018 hPa 0.00 in0.00 mm --
04:53 04:53 Mostly Cloudy Mostly Cloudy 57°F14°C 52°F11°C 83% SE 7 mphSE 11 kph 10.0 miles16.1 km 30.06 in1018 hPa 0.00 in0.03 mm --
03:53 03:53 Cloudy Cloudy 57°F14°C 50°F10°C 78% SE 3 mphSE 6 kph 10.0 miles16.1 km 30.09 in1019 hPa 0.00 in0.00 mm --
02:53 02:53 Cloudy Cloudy 57°F14°C 50°F10°C 78% CalmCalm 10.0 miles16.1 km 30.12 in1020 hPa 0.00 in0.00 mm --
01:53 01:53 Cloudy Cloudy 56°F13°C 52°F11°C 87% NNE 5 mphNNE 7 kph 10.0 miles16.1 km 30.12 in1020 hPa 0.00 in0.03 mm --
00:53 00:53 Cloudy Cloudy 56°F13°C 51°F11°C 84% E 3 mphE 6 kph 10.0 miles16.1 km 30.12 in1020 hPa 0.00 in0.00 mm --